SCP
1 1 1 1 1 1 1 1 1 1 1 1 1 1 1 1 1 1 0 0 0 0 0 0 1 1 1 1 1 1 1 1 1 1 1 1 1 1 1 0 0 0 0
1 1 1 1 1 1 1 0 1 1 1 1 1 1 1 1 1 1 0 0 0 0 0 0 1 1 1 1 0 0 1 1 1 1 1 1 1 1 1 0 0 0 0
1 1 1 1 1 1 0 0 0 0 0 0 0 0 1 1 1 1 0 0 0 0 0 1 1 1 1 1 0 0 0 1 1 1 1 1 1 1 1 0 0 0 1
1 1 1 1 1 1 0 0 0 0 0 0 0 0 0 1 1 1 1 1 1 1 1 1 1 1 1 1 1 0 0 1 1 1 0 0 0 1 0 0 0 0 1
0 0 1 1 1 1 1 0 0 0 0 0 0 0 0 0 1 1 1 1 1 1 0 1 1 1 1 1 1 1 1 1 0 0 0 0 0 1 1 0 0 0 0
0 0 1 1 1 1 1 1 0 0 0 0 0 0 0 1 1 1 1 1 1 1 0 1 1 1 1 1 0 1 1 0 0 0 0 0 0 1 1 1 0 0 0
0 0 1 1 1 1 1 1 1 0 0 0 0 0 1 1 1 1 1 1 1 1 1 1 1 1 1 0 0 0 0 0 0 0 0 0 0 1 1 1 1 0 0
1 1 1 1 1 1 1 1 1 1 1 1 1 1 1 1 1 1 1 1 1 1 1 1 1 1 1 1 0 0 0 0 0 0 0 0 0 1 1 1 1 1 0
1 1 1 1 1 1 1 1 1 1 1 1 1 1 1 1 1 1 1 1 1 1 1 1 1 1 1 1 0 0 0 0 0 0 0 0 0 1 1 1 1 1 1
1 1 1 1 1 1 1 1 1 1 1 1 1 1 1 1 1 1 1 1 1 1 1 1 1 1 0 0 0 0 0 0 0 0 0 0 0 1 1 1 1 1 1
1 1 1 1 1 1 1 2 2 1 1 1 1 1 1 1 1 1 1 1 1 1 1 1 1 1 0 0 0 0 0 0 0 0 0 0 0 1 1 1 1 1 1
1 1 1 1 1 1 2 2 2 1 1 1 1 1 1 1 1 1 1 1 1 1 1 1 1 1 1 1 0 0 0 1 1 0 0 0 1 1 1 1 1 1 1
1 1 1 1 1 2 2 2 2 2 1 1 0 0 0 0 1 1 1 1 1 1 1 1 1 1 1 1 1 1 1 1 1 1 0 0 1 1 1 1 1 1 1
2 2 1 1 2 2 2 2 2 2 2 1 1 1 1 1 1 1 1 1 1 1 1 1 1 1 1 1 1 1 1 1 1 1 1 1 1 1 1 1 1 1 1
3 2 1 1 2 2 3 2 2 2 2 1 1 1 1 1 1 1 2 2 1 1 1 1 1 1 1 1 1 1 1 1 1 1 1 1 1 1 1 1 1 1 1
3 2 2 1 2 2 2 2 2 2 2 2 1 1 1 1 1 1 1 1 1 1 1 1 2 2 2 2 2 2 2 2 1 1 1 1 1 2 2 2 1 1 1
3 3 2 2 2 2 2 2 2 2 2 1 1 2 2 2 1 1 1 1 1 1 1 1 2 2 2 2 2 2 2 2 1 1 1 1 1 2 2 2 2 1 1
3 3 3 3 2 2 2 2 2 2 1 1 1 2 2 2 2 1 1 1 1 1 1 1 2 2 2 2 2 2 2 1 1 1 1 1 1 1 1 2 2 1 1
2 3 3 3 2 2 2 2 2 2 2 1 1 1 2 2 2 2 1 1 1 1 1 2 2 2 2 2 2 2 1 1 1 0 0 0 0 1 1 1 1 1 2
2 2 3 3 2 2 2 2 2 2 2 1 1 1 2 2 2 2 1 1 1 1 2 2 2 2 2 2 2 2 1 0 0 0 0 0 0 0 0 1 1 1 1
2 2 3 3 2 2 2 2 2 2 2 2 1 1 2 2 2 2 2 2 2 2 2 2 2 2 2 2 2 1 0 0 0 0 0 0 0 0 0 0 0 1 1
2 3 3 3 2 2 3 3 2 2 2 2 1 1 2 2 2 2 2 3 2 2 2 2 2 2 2 2 1 0 0 0 0 0 0 0 0 0 0 0 0 0 0
3 3 3 3 2 2 3 3 3 2 2 2 1 1 2 2 2 2 3 3 3 2 2 2 2 2 2 1 1 0 0 0 0 0 0 0 0 0 0 0 0 0 0
3 3 3 3 3 3 3 3 3 3 2 2 2 2 2 2 2 2 3 3 3 2 2 2 2 2 1 1 0 0 0 0 0 0 0 0 0 0 0 0 0 0 0
3 3 3 3 3 3 3 4 4 3 3 2 2 2 2 2 2 2 3 3 3 2 2 2 2 2 1 1 0 0 0 0 0 0 0 0 0 0 0 0 0 1 1
4 4 3 4 4 4 4 4 4 4 3 2 2 1 2 2 2 2 3 3 3 3 2 2 2 2 1 1 1 0 0 0 0 0 0 0 0 0 0 0 1 1 1
Wind_Speed
1 2 9 11 13 13 13 13 13 13 13 14 14 15 15 15 16 16 16 16 16 16 15 15 15 15 15 15 16 15 15 14 14 14 14 14 13 13 13 14 12 9 13
4 4 9 11 13 13 13 13 13 13 14 14 14 15 15 15 16 16 15 16 15 15 14 14 14 14 14 14 14 14 14 14 13 13 13 12 12 12 11 12 12 8 13
6 5 7 11 12 12 12 12 12 13 13 14 14 14 14 14 15 15 15 15 15 14 14 14 14 14 13 13 13 13 13 13 12 12 11 6 7 11 11 12 12 12 12
7 5 7 11 11 12 12 12 12 12 13 13 13 13 13 13 14 14 14 14 14 14 14 13 13 13 12 12 11 11 11 11 11 10 5 4 5 10 11 12 12 12 12
6 5 7 11 11 11 11 11 11 11 12 12 12 12 12 13 13 13 13 13 13 13 12 12 12 12 11 10 10 10 9 10 10 7 4 4 4 9 11 11 12 12 12
6 5 7 11 11 11 11 11 10 11 11 11 11 11 12 12 12 12 12 12 12 11 12 11 11 11 10 9 9 8 8 8 7 4 4 4 4 8 10 11 11 11 11
6 4 6 10 10 10 10 10 10 10 10 11 10 11 11 11 11 11 11 11 11 11 11 11 11 10 9 8 8 7 7 7 5 4 3 3 4 8 10 11 10 10 11
7 5 5 9 10 9 9 9 9 9 10 10 10 10 10 10 10 10 10 10 10 10 10 10 10 9 8 7 7 7 6 6 5 4 3 3 7 8 10 11 10 10 10
6 5 3 4 6 8 9 9 8 9 9 9 9 9 9 9 9 9 9 9 9 9 9 9 9 8 8 6 6 6 6 6 3 2 4 3 8 11 11 11 11 10 10
5 4 3 3 3 3 4 7 8 8 9 9 8 9 9 8 8 8 7 8 8 8 8 8 8 7 7 6 6 5 5 4 2 2 2 4 9 11 12 12 11 11 10
5 3 3 3 3 3 3 5 5 6 7 6 6 7 6 3 3 4 6 8 8 8 7 7 7 6 6 5 4 5 4 2 2 2 2 6 10 11 11 11 11 11 11
5 3 3 3 4 3 3 3 1 2 2 2 2 2 2 2 3 4 6 8 7 7 6 6 6 5 3 2 2 2 2 2 2 2 3 9 10 11 10 10 11 11 10
5 5 4 4 4 4 3 3 2 1 1 2 2 2 2 2 2 2 2 3 3 4 2 2 2 1 2 2 2 2 2 2 2 2 3 9 10 11 11 10 10 10 10
5 5 4 4 4 4 4 3 2 2 2 2 2 3 2 2 2 2 2 2 2 1 1 1 1 2 2 2 2 2 2 2 2 2 3 8 9 10 10 10 10 10 9
5 4 4 4 4 4 4 2 3 2 2 2 2 2 3 3 2 2 2 2 2 2 2 2 2 2 2 1 2 3 3 3 3 2 2 7 9 9 9 10 10 10 10
5 4 4 4 4 4 3 3 3 2 2 2 1 2 3 2 2 2 2 2 2 2 2 2 3 2 2 2 2 2 3 3 3 3 2 4 7 8 9 9 10 10 10
6 5 4 4 4 4 4 3 2 2 2 2 2 2 3 3 3 3 2 2 1 1 2 2 2 2 2 2 2 2 2 3 3 3 3 2 3 6 8 8 8 9 9
6 6 5 5 5 4 3 3 2 2 2 2 2 2 3 3 3 3 2 1 1 2 2 2 2 2 1 1 1 1 2 2 3 3 3 2 2 2 4 7 7 7 8
7 6 5 5 5 4 3 2 2 2 2 1 2 2 2 2 3 3 2 1 2 2 2 2 2 2 2 2 1 1 1 2 2 3 3 3 2 2 2 4 6 6 7
7 6 6 5 5 4 3 2 2 2 1 1 1 2 2 2 2 3 2 2 2 2 1 2 2 1 2 2 1 1 1 1 2 2 3 2 2 2 2 2 2 3 5
6 6 6 5 4 3 2 2 2 1 1 1 1 2 2 2 2 2 2 2 2 2 1 1 2 2 1 2 2 2 2 1 1 1 2 2 2 2 2 2 1 1 2
8 6 6 5 5 4 3 2 2 2 1 1 0 1 1 2 2 2 3 2 1 2 1 1 2 2 1 1 2 1 1 3 2 0 1 2 2 2 2 2 1 1 1
9 8 7 6 6 5 4 3 2 2 2 1 1 0 0 1 2 2 2 2 1 2 1 1 2 3 2 1 2 3 2 2 1 2 0 1 2 1 1 1 2 2 2
10 8 7 7 6 5 5 4 4 3 2 2 1 1 0 1 1 2 2 2 2 2 1 1 1 1 2 1 1 1 2 3 3 0 1 1 0 1 1 2 2 2 2
10 9 8 7 6 5 5 5 4 3 2 1 1 1 0 0 1 1 2 2 2 1 1 1 1 1 1 2 1 1 1 1 1 2 1 1 1 0 1 1 1 1 2
8 8 8 7 6 5 5 5 5 4 3 2 1 1 0 0 1 1 2 2 1 1 1 1 1 1 1 1 1 1 1 1 2 2 2 1 0 1 0 1 1 1 1
Wind_Direction
88 102 103 98 95 94 93 91 89 91 94 97 100 104 105 108 113 118 119 121 122 122 120 119 119 117 119 120 120 120 120 120 118 117 116 117 118 119 120 117 116 116 122
135 113 104 99 97 95 94 93 92 93 96 99 102 104 106 109 113 117 120 123 125 124 123 121 121 120 120 120 121 123 123 121 119 119 119 119 121 121 122 120 120 124 124
123 113 107 103 99 97 96 95 95 95 97 101 103 106 108 111 114 118 119 121 123 124 124 124 124 122 121 122 122 124 123 123 121 120 117 113 119 120 123 126 125 126 126
124 118 112 108 105 102 100 98 98 99 101 103 105 108 112 114 117 119 120 122 122 123 125 126 126 124 123 123 122 123 124 125 123 121 111 113 120 126 127 128 127 128 128
117 118 122 116 112 109 107 105 104 105 106 108 109 112 115 117 119 120 122 122 123 125 128 128 127 126 124 125 124 123 125 127 126 117 111 112 113 132 132 132 132 132 132
123 126 130 123 117 114 112 110 110 112 112 112 114 117 118 120 121 122 124 124 125 129 130 130 130 130 128 127 126 124 126 128 123 111 115 122 127 141 139 138 138 137 137
130 128 133 127 123 120 119 118 118 120 120 120 122 124 123 124 125 126 127 128 129 130 134 134 135 134 133 132 131 128 130 136 129 123 128 131 143 147 145 143 143 143 140
130 128 132 133 131 130 129 127 127 127 128 129 130 130 129 130 131 133 135 134 133 134 136 141 142 141 140 138 138 139 136 135 134 127 133 150 158 156 152 149 147 146 146
126 124 120 132 134 137 137 137 136 136 136 135 135 135 135 136 136 139 140 140 140 142 143 144 145 144 145 143 143 143 142 141 133 142 154 161 171 165 161 156 155 154 155
124 127 127 133 132 137 143 147 144 141 141 141 144 143 141 140 141 144 143 146 148 148 149 152 152 152 153 153 149 146 145 135 125 144 152 168 171 168 166 164 162 162 164
134 139 143 149 155 156 161 150 144 142 144 144 147 150 144 134 143 151 153 156 158 156 156 159 162 164 165 159 157 159 150 132 137 157 165 169 171 169 168 167 166 166 167
143 155 159 160 167 170 168 141 135 144 141 138 137 142 144 150 159 158 157 163 166 163 166 170 173 172 163 140 152 157 134 143 152 166 167 167 167 167 168 168 169 169 170
149 148 156 156 155 157 151 147 153 149 144 145 149 147 132 129 139 143 142 155 157 164 167 165 160 148 147 150 145 141 147 148 155 165 163 167 170 171 172 172 172 173 174
134 137 143 137 133 139 135 142 148 143 149 149 153 147 136 133 139 148 151 151 153 155 144 150 134 135 136 153 161 149 146 145 152 154 160 166 171 174 174 174 173 173 174
131 134 133 124 118 117 114 129 129 142 149 158 151 146 136 132 136 141 149 148 154 154 154 155 147 141 147 174 179 161 151 142 142 151 156 165 169 172 173 175 176 177 176
138 138 136 121 114 112 114 119 132 151 146 141 143 151 138 137 132 126 123 137 154 165 166 160 159 148 151 152 158 159 156 152 150 164 161 173 178 175 177 178 179 183 183
146 140 135 128 111 110 115 121 119 134 129 135 153 146 130 131 131 127 126 136 160 156 147 140 139 132 144 147 152 161 153 151 161 163 164 167 177 178 178 181 181 182 183
141 141 144 132 119 113 108 107 108 117 124 135 140 130 131 137 137 127 129 143 149 130 132 135 132 125 133 142 149 164 158 151 163 165 162 167 169 179 189 190 184 184 188
150 148 144 129 135 135 121 114 105 100 115 129 121 120 128 134 137 133 138 144 118 112 124 143 133 140 143 151 164 166 166 162 168 170 165 165 169 179 188 194 189 188 192
152 147 143 140 144 139 120 98 83 74 78 103 116 126 129 131 134 131 133 132 121 113 110 124 137 139 152 158 134 104 157 178 162 164 171 160 166 181 174 176 186 199 197
154 152 150 149 159 143 129 125 124 127 111 89 109 129 135 140 133 124 128 123 126 129 137 141 137 131 131 117 90 43 13 36 117 157 154 149 153 176 159 167 180 191 214
168 168 161 160 161 161 160 153 148 144 140 152 137 118 139 133 135 135 133 139 136 121 113 122 143 147 172 154 133 103 26 10 10 96 136 155 169 165 162 165 147 174 192
173 176 173 171 166 167 156 129 104 82 68 69 63 72 89 123 125 132 134 139 135 130 145 179 167 163 183 221 165 149 151 198 293 347 347 179 170 170 180 169 170 182 182
182 178 172 169 167 168 157 147 144 142 151 185 184 168 98 113 130 141 143 144 140 129 141 202 185 176 157 185 238 175 167 164 157 209 340 352 149 170 180 173 176 185 181
179 177 173 167 168 168 164 163 155 154 168 170 141 119 88 42 102 134 132 132 140 141 149 144 80 122 141 161 169 159 109 103 148 161 205 316 6 334 184 160 158 177 178
176 174 170 166 171 170 165 162 163 165 166 151 151 141 129 57 39 79 121 122 130 134 141 146 111 101 116 117 120 129 154 168 184 171 176 186 204 310 53 123 161 184 172